Location: Rounton
(54.4000°N, 1.3500°W)
Time: 20:25:02
(UTC+01:00)

deb Delta 126 - Pass Details

Date: 09 July 2022
Orbit: 1120 x 1970 km, 101.5° (Epoch: 17 August)

Event Time Altitude Azimuth Distance (km) Brightness Sun altitude
Rises 02:36:40 0° 56° (NE) 4,906 ? -11.0°
Reaches altitude 10° 02:40:39 10° 40° (NE) 4,051 ? -10.8°
Maximum altitude 02:46:40 19° 1° (N) 3,558 ? -10.5°
Drops below altitude 10° 02:53:02 10° 324° (NW) 4,342 ? -10.1°
Sets 02:57:32 0° 309° (NW) 5,390 ? -9.9°
